Location: Unspecified
(0.0000°N, 0.0000°E)
Time: 00:24:02
(UTC+00:00)

X-37B - Pass Details

Date: 21 January 2022
Orbit: 334 x 337 km, 45.0° (Epoch: 11 January)

Event Time Altitude Azimuth Distance (km) Brightness Sun altitude
Exits shadow 05:36:41 - 334° (NNW) 1,646 3.3 -8.1°
Reaches altitude 10° 05:37:40 10° 340° (NNW) 1,260 2.8 -7.9°
Maximum altitude 05:40:17 34° 48° (NE) 571 1.7 -7.3°
Drops below altitude 10° 05:42:55 10° 116° (ESE) 1,265 5.0 -6.7°
Sets 05:45:01 0° 125° (SE) 2,104 6.2 -6.2°
